Date,TemperatureHighF,TemperatureAvgF,TemperatureLowF,DewpointHighF,DewpointAvgF,DewpointLowF,HumidityHigh,HumidityAvg,HumidityLow,PressureMaxIn,PressureMinIn,WindSpeedMaxMPH,WindSpeedAvgMPH,GustSpeedMaxMPH,PrecipitationSumIn
2013-6-1,76.1,60.9,46.2,52.7,49.0,44.9,98,69,38,30.25,30.03,4,1,11,0.00
2013-6-2,72.7,60.0,51.0,53.6,50.4,47.2,96,72,45,30.09,30.04,2,0,7,0.00
2013-6-3,76.9,57.9,41.9,55.8,48.7,41.1,99,75,42,30.13,30.04,3,0,7,0.00
2013-6-4,85.3,63.2,40.9,54.9,49.3,40.4,99,67,29,30.13,30.00,3,1,11,0.00
2013-6-5,83.1,65.0,47.7,59.8,54.0,47.2,99,72,38,30.09,30.00,3,1,8,0.00
2013-6-6,83.4,64.5,47.9,57.9,50.7,39.4,99,67,25,30.06,29.99,2,0,7,0.00
2013-6-7,70.0,59.3,50.6,56.2,48.9,42.7,90,70,45,30.15,30.03,3,1,10,0.00
2013-6-8,78.4,59.1,45.3,54.7,49.6,44.2,97,74,41,30.19,30.08,3,1,7,0.00
2013-6-9,71.3,57.3,44.8,52.7,47.7,43.0,97,74,42,30.12,30.02,2,0,7,0.00
2013-6-10,73.0,54.8,39.0,49.3,44.7,38.2,99,73,38,30.04,29.90,3,1,8,0.00
2013-6-11,65.2,55.0,46.6,54.0,46.9,44.2,92,76,48,30.13,29.96,4,1,11,0.02
2013-6-12,65.5,54.7,45.4,53.6,48.3,44.1,97,80,50,30.15,30.12,4,1,8,0.08
2013-6-13,68.6,57.9,49.8,56.7,50.0,46.8,95,76,47,30.24,30.14,3,1,11,0.03
2013-6-14,67.1,57.3,46.9,52.4,49.3,45.6,96,76,54,30.24,30.04,2,1,6,0.00
2013-6-15,81.1,61.9,40.8,55.0,49.7,40.3,99,70,36,30.04,29.91,2,0,7,0.00
2013-6-16,75.0,61.6,48.0,56.5,52.4,46.9,99,74,49,30.10,30.00,3,1,8,0.00
2013-6-17,80.8,62.1,52.6,55.9,52.6,48.2,97,74,34,30.10,29.92,3,1,9,0.13
2013-6-18,74.6,59.3,49.4,57.2,50.6,46.0,99,77,39,29.98,29.91,3,1,9,0.01
2013-6-19,70.3,59.0,48.1,53.0,49.2,46.7,98,73,45,30.03,29.93,4,1,13,0.00
2013-6-20,62.9,56.6,52.1,52.5,49.9,47.2,92,79,57,30.12,29.99,4,1,10,0.00
2013-6-21,72.6,59.1,52.1,56.0,52.6,50.1,95,80,51,30.16,30.10,2,0,6,0.00
2013-6-22,82.6,63.4,45.4,57.4,51.6,44.9,99,71,33,30.12,29.84,2,0,8,0.00
2013-6-23,69.2,62.5,58.0,63.0,58.8,54.8,98,88,72,29.84,29.61,2,0,5,0.80
2013-6-24,71.2,60.8,55.8,58.4,56.1,53.8,99,85,55,29.70,29.58,3,1,8,0.17
2013-6-25,76.2,61.3,55.2,61.7,56.8,54.4,98,87,50,29.84,29.67,5,1,11,0.27
2013-6-26,71.7,62.1,55.4,62.4,58.0,54.6,99,87,60,30.06,29.83,4,1,9,0.11
2013-6-27,72.4,63.1,57.7,66.6,61.1,56.7,98,93,77,30.19,30.03,2,0,5,0.36
2013-6-28,90.9,71.5,60.4,67.4,63.0,59.8,99,78,44,30.18,30.03,4,1,9,0.00
2013-6-29,91.2,73.5,60.9,64.4,60.9,58.8,96,69,35,30.10,29.97,2,0,5,0.00
2013-6-30,97.7,76.0,56.2,68.1,61.8,55.6,99,68,29,30.00,29.83,3,1,8,0.00